Location: ????????
(41.2031°N, 22.5756°E)
Time: 06:14:49
(UTC+00:00)

CENTAUR R/B - Pass Details

Date: 01 December 2020
Orbit: 750 x 1438 km, 63.4° (Epoch: 11 January)

Event Time Altitude Azimuth Distance (km) Brightness Sun altitude
Rises 16:10:47 0° 176° (S) 3,308 5.5 -12.8°
Reaches altitude 10° 16:13:26 10° 164° (SSE) 2,453 4.6 -13.3°
Maximum altitude 16:18:03 26° 109° (ESE) 1,717 3.4 -14.1°
Enters shadow 16:20:30 20° 75° (ENE) 2,045 3.5 -14.5°
